Location: La Comballaz
(46.3780°N, 7.0817°E)
Time: 18:41:23
(UTC+00:00)

N. Korean satellite - Pass Details

Date: 08 December 2021
Orbit: 446 x 492 km, 97.3° (Epoch: 17 January)

Event Time Altitude Azimuth Distance (km) Brightness Sun altitude
Rises 16:33:57 0° 193° (SSW) 2,516 10.8 -8.2°
Reaches altitude 10° 16:36:15 10° 206° (SSW) 1,634 10.0 -8.6°
Maximum altitude 16:39:14 26° 264° (W) 964 9.0 -9.1°
Drops below altitude 10° 16:42:12 10° 323° (NW) 1,623 9.4 -9.5°
Sets 16:44:29 0° 336° (NNW) 2,495 10.2 -9.9°
